STARLINK BB

Last updated on June 19, 2020, 12:02 a.m. UTC

1 45779U 20038BB  20170.66667824  .00093864  11273-4  11771-3 0  9998
2 45779  53.0001 272.2382 0111404  69.4144  27.6067 15.96095068  2120

Satellite is not in orbit.